| time (UTC) | temp C | wind direction | speed KPH | gust KPH | rain 1hr cm | rain 24hr cm | rain mn cm | humidity % | barometer mb |
| 20260504184001 | 23 | 212 | 25.7 | 51.5 | 0.00 | 0.00 | 0.00 | 51 | 1005.7 |
| 20260504183502 | 23 | 209 | 19.3 | 45.1 | 0.00 | 0.00 | 0.00 | 53 | 1006.0 |
| 20260504183001 | 24 | 217 | 32.2 | 48.3 | 0.00 | 0.00 | 0.00 | 50 | 1005.9 |
| 20260504182502 | 24 | 227 | 29.0 | 54.7 | 0.00 | 0.00 | 0.00 | 51 | 1006.1 |
| 20260504182002 | 24 | 213 | 41.8 | 46.7 | 0.00 | 0.00 | 0.00 | 51 | 1006.2 |
| 20260504181502 | 24 | 218 | 20.9 | 45.1 | 0.00 | 0.00 | 0.00 | 51 | 1006.2 |
| 20260504181002 | 23 | 214 | 24.1 | 45.1 | 0.00 | 0.00 | 0.00 | 55 | 1006.3 |
| 20260504180501 | 23 | 224 | 19.3 | 43.5 | 0.00 | 0.00 | 0.00 | 56 | 1006.2 |
| 20260504180003 | 23 | 237 | 27.4 | 49.9 | 0.00 | 0.00 | 0.00 | 53 | 1006.5 |
| 20260504175502 | 23 | 256 | 22.5 | 38.6 | 0.00 | 0.00 | 0.00 | 54 | 1006.5 |
| 20260504175002 | 23 | 255 | 24.1 | 43.5 | 0.00 | 0.00 | 0.00 | 55 | 1006.4 |
| 20260504174502 | 23 | 236 | 35.4 | 46.7 | 0.00 | 0.00 | 0.00 | 52 | 1006.5 |
| 20260504174002 | 23 | 229 | 41.8 | 54.7 | 0.00 | 0.00 | 0.00 | 52 | 1006.5 |
| 20260504173501 | 23 | 210 | 29.0 | 40.2 | 0.00 | 0.00 | 0.00 | 53 | 1006.5 |
| 20260504173001 | 23 | 210 | 48.3 | 49.9 | 0.00 | 0.00 | 0.00 | 52 | 1006.5 |
| 20260504172502 | 23 | 236 | 24.1 | 33.8 | 0.00 | 0.00 | 0.00 | 54 | 1006.6 |
| 20260504172001 | 23 | 229 | 30.6 | 38.6 | 0.00 | 0.00 | 0.00 | 52 | 1006.7 |
| 20260504171502 | 22 | 212 | 38.6 | 41.8 | 0.00 | 0.00 | 0.00 | 53 | 1006.6 |
| 20260504171002 | 22 | 205 | 17.7 | 37.0 | 0.00 | 0.00 | 0.00 | 56 | 1006.8 |
| 20260504170502 | 22 | 218 | 24.1 | 35.4 | 0.00 | 0.00 | 0.00 | 58 | 1006.7 |
| 20260504151003 | 18 | 228 | 19.3 | 33.8 | 0.00 | 0.00 | 0.00 | 67 | 1008.3 |
| 20260504150501 | 18 | 214 | 24.1 | 27.4 | 0.00 | 0.00 | 0.00 | 66 | 1008.2 |
| 20260504141002 | 16 | 210 | 20.9 | 35.4 | 0.00 | 0.00 | 0.00 | 68 | 1008.5 |
| 20260504140502 | 16 | 212 | 24.1 | 32.2 | 0.00 | 0.00 | 0.00 | 70 | 1008.4 |
| 20260504130501 | 14 | 197 | 8.0 | 35.4 | 0.00 | 0.00 | 0.00 | 73 | 1008.8 |
| 20260504110502 | 8 | 210 | 14.5 | 17.7 | 0.00 | 0.00 | 0.00 | 84 | 1008.9 |
| 20260504100501 | 9 | 194 | 11.3 | 29.0 | 0.00 | 0.00 | 0.00 | 81 | 1008.9 |
| 20260504082002 | 8 | 165 | 9.7 | 22.5 | 0.00 | 0.00 | 0.00 | 83 | 1009.7 |
| 20260504081502 | 8 | 180 | 9.7 | 20.9 | 0.00 | 0.00 | 0.00 | 83 | 1009.8 |
| 20260504081002 | 8 | 201 | 11.3 | 22.5 | 0.00 | 0.00 | 0.00 | 82 | 1009.8 |
| 20260504080502 | 9 | 182 | 8.0 | 24.1 | 0.00 | 0.00 | 0.00 | 82 | 1009.8 |
| 20260504050502 | 9 | 200 | 14.5 | 19.3 | 0.00 | 0.00 | 0.00 | 78 | 1011.6 |
| 20260504050003 | 10 | 195 | 12.9 | 20.9 | 0.00 | 0.00 | 0.00 | 78 | 1011.5 |
| 20260504045502 | 10 | 132 | 8.0 | 19.3 | 0.00 | 0.00 | 0.00 | 79 | 1011.7 |
| 20260504045001 | 9 | 157 | 8.0 | 16.1 | 0.00 | 0.00 | 0.00 | 79 | 1011.8 |
| 20260504044501 | 9 | 176 | 11.3 | 19.3 | 0.00 | 0.00 | 0.00 | 79 | 1011.6 |
| 20260504044002 | 9 | 172 | 8.0 | 20.9 | 0.00 | 0.00 | 0.00 | 80 | 1011.6 |
| 20260504043502 | 9 | 180 | 8.0 | 17.7 | 0.00 | 0.00 | 0.00 | 81 | 1011.7 |
| 20260504043002 | 8 | 166 | 8.0 | 19.3 | 0.00 | 0.00 | 0.00 | 82 | 1011.9 |
| 20260504042501 | 8 | 165 | 6.4 | 19.3 | 0.00 | 0.00 | 0.00 | 81 | 1011.7 |
| 20260504042001 | 8 | 165 | 8.0 | 17.7 | 0.00 | 0.00 | 0.00 | 82 | 1011.9 |
| 20260504041501 | 8 | 146 | 12.9 | 19.3 | 0.00 | 0.00 | 0.00 | 81 | 1012.0 |
| 20260504041002 | 9 | 152 | 6.4 | 16.1 | 0.00 | 0.00 | 0.00 | 81 | 1011.9 |
| 20260504040502 | 9 | 151 | 9.7 | 16.1 | 0.00 | 0.00 | 0.00 | 81 | 1012.0 |
| 20260504040002 | 9 | 168 | 8.0 | 30.6 | 0.00 | 0.00 | 0.00 | 80 | 1012.2 |
| 20260504035501 | 9 | 155 | 20.9 | 20.9 | 0.00 | 0.00 | 0.00 | 80 | 1012.1 |
| 20260504035002 | 9 | 151 | 9.7 | 24.1 | 0.00 | 0.00 | 0.00 | 81 | 1012.2 |
| 20260504034502 | 9 | 159 | 11.3 | 17.7 | 0.00 | 0.00 | 0.00 | 81 | 1012.2 |
| 20260504034002 | 9 | 157 | 16.1 | 19.3 | 0.00 | 0.00 | 0.00 | 81 | 1012.3 |
| 20260504033502 | 9 | 175 | 9.7 | 17.7 | 0.00 | 0.00 | 0.00 | 81 | 1012.3 |
| 20260504033001 | 9 | 153 | 6.4 | 20.9 | 0.00 | 0.00 | 0.00 | 81 | 1012.4 |
| 20260504032502 | 10 | 149 | 12.9 | 20.9 | 0.00 | 0.00 | 0.00 | 80 | 1012.4 |
| 20260504032002 | 10 | 155 | 9.7 | 25.7 | 0.00 | 0.00 | 0.00 | 79 | 1012.2 |
| 20260504031501 | 10 | 158 | 16.1 | 22.5 | 0.00 | 0.00 | 0.00 | 79 | 1012.5 |
| 20260504031002 | 10 | 171 | 9.7 | 24.1 | 0.00 | 0.00 | 0.00 | 79 | 1012.5 |
| 20260504030501 | 10 | 188 | 8.0 | 19.3 | 0.00 | 0.00 | 0.00 | 79 | 1012.5 |
| 20260504030002 | 10 | 170 | 6.4 | 24.1 | 0.00 | 0.00 | 0.00 | 79 | 1012.6 |
| 20260504025502 | 10 | 176 | 11.3 | 24.1 | 0.00 | 0.00 | 0.00 | 79 | 1012.6 |
| 20260504025001 | 10 | 188 | 11.3 | 24.1 | 0.00 | 0.00 | 0.00 | 79 | 1012.7 |
| 20260504024502 | 10 | 148 | 12.9 | 27.4 | 0.00 | 0.00 | 0.00 | 79 | 1012.7 |
| 20260504024001 | 10 | 179 | 4.8 | 27.4 | 0.00 | 0.00 | 0.00 | 79 | 1012.7 |
| 20260504023501 | 10 | 167 | 9.7 | 30.6 | 0.00 | 0.00 | 0.00 | 78 | 1012.7 |
| 20260504023001 | 10 | 156 | 9.7 | 29.0 | 0.00 | 0.00 | 0.00 | 77 | 1012.8 |
| 20260504022502 | 10 | 172 | 30.6 | 30.6 | 0.00 | 0.00 | 0.00 | 77 | 1013.0 |
| 20260504022002 | 10 | 161 | 8.0 | 27.4 | 0.00 | 0.00 | 0.00 | 78 | 1012.9 |
| 20260504021501 | 10 | 207 | 24.1 | 29.0 | 0.00 | 0.00 | 0.00 | 78 | 1012.7 |
| 20260504021002 | 10 | 165 | 16.1 | 20.9 | 0.00 | 0.00 | 0.00 | 80 | 1012.8 |
| 20260504020501 | 10 | 173 | 8.0 | 25.7 | 0.00 | 0.00 | 0.00 | 80 | 1012.6 |
| 20260504020002 | 10 | 187 | 8.0 | 24.1 | 0.00 | 0.00 | 0.00 | 81 | 1012.9 |
| 20260504015501 | 10 | 201 | 14.5 | 27.4 | 0.00 | 0.00 | 0.00 | 80 | 1012.6 |
| 20260504015002 | 9 | 201 | 6.4 | 17.7 | 0.00 | 0.00 | 0.00 | 82 | 1012.7 |
| 20260504014502 | 9 | 155 | 17.7 | 24.1 | 0.00 | 0.00 | 0.00 | 82 | 1012.8 |
| 20260504014001 | 10 | 178 | 14.5 | 22.5 | 0.00 | 0.00 | 0.00 | 81 | 1012.7 |
| 20260504013502 | 9 | 167 | 14.5 | 24.1 | 0.00 | 0.00 | 0.00 | 80 | 1012.8 |
| 20260504013002 | 9 | 160 | 9.7 | 19.3 | 0.00 | 0.00 | 0.00 | 81 | 1012.8 |
| 20260504012501 | 9 | 169 | 11.3 | 22.5 | 0.00 | 0.00 | 0.00 | 83 | 1013.0 |
| 20260504012002 | 9 | 155 | 14.5 | 29.0 | 0.00 | 0.00 | 0.00 | 82 | 1012.9 |
| 20260504011501 | 9 | 151 | 6.4 | 32.2 | 0.00 | 0.00 | 0.00 | 82 | 1012.9 |
| 20260504011002 | 9 | 152 | 20.9 | 29.0 | 0.00 | 0.00 | 0.00 | 82 | 1013.0 |
| 20260504010501 | 9 | 161 | 8.0 | 29.0 | 0.00 | 0.00 | 0.00 | 81 | 1012.9 |
| 20260504010002 | 9 | 165 | 6.4 | 22.5 | 0.00 | 0.00 | 0.00 | 81 | 1013.0 |
| 20260504005501 | 9 | 145 | 12.9 | 25.7 | 0.00 | 0.00 | 0.00 | 81 | 1013.0 |
| 20260504005002 | 9 | 156 | 9.7 | 24.1 | 0.00 | 0.00 | 0.00 | 80 | 1013.1 |
| 20260504004501 | 9 | 151 | 14.5 | 24.1 | 0.00 | 0.00 | 0.00 | 81 | 1013.2 |
| 20260504004002 | 9 | 164 | 8.0 | 16.1 | 0.00 | 0.00 | 0.00 | 80 | 1013.1 |
| 20260504003501 | 9 | 150 | 14.5 | 27.4 | 0.00 | 0.00 | 0.00 | 80 | 1013.1 |
| 20260504003001 | 10 | 164 | 14.5 | 24.1 | 0.00 | 0.00 | 0.00 | 80 | 1013.2 |
| 20260504002501 | 10 | 156 | 6.4 | 16.1 | 0.00 | 0.00 | 0.00 | 80 | 1013.3 |
| 20260504002002 | 10 | 153 | 12.9 | 16.1 | 0.00 | 0.00 | 0.00 | 80 | 1013.4 |
| 20260504001502 | 10 | 165 | 6.4 | 17.7 | 0.00 | 0.00 | 0.00 | 79 | 1013.2 |
| 20260504001001 | 10 | 162 | 9.7 | 20.9 | 0.00 | 0.00 | 0.00 | 79 | 1013.4 |
| 20260504000502 | 10 | 168 | 8.0 | 20.9 | 0.00 | 0.00 | 0.00 | 78 | 1013.4 |
| 20260504000003 | 10 | 167 | 8.0 | 24.1 | 0.00 | 0.00 | 0.00 | 79 | 1013.4 |
| 20260503235502 | 10 | 153 | 16.1 | 24.1 | 0.00 | 0.00 | 0.00 | 79 | 1013.2 |
| 20260503235001 | 10 | 153 | 6.4 | 17.7 | 0.00 | 0.00 | 0.00 | 79 | 1013.2 |
| 20260503234502 | 10 | 154 | 9.7 | 19.3 | 0.00 | 0.00 | 0.00 | 79 | 1013.3 |
| 20260503234001 | 10 | 156 | 9.7 | 24.1 | 0.00 | 0.00 | 0.00 | 77 | 1013.2 |
| 20260503233502 | 10 | 187 | 8.0 | 22.5 | 0.00 | 0.00 | 0.00 | 78 | 1013.4 |
| 20260503233001 | 10 | 150 | 14.5 | 25.7 | 0.00 | 0.00 | 0.00 | 77 | 1013.4 |
| 20260503232502 | 10 | 175 | 17.7 | 22.5 | 0.00 | 0.00 | 0.00 | 77 | 1013.5 |
| 20260503232001 | 10 | 186 | 12.9 | 20.9 | 0.00 | 0.00 | 0.00 | 77 | 1013.3 |
| 20260503231502 | 10 | 191 | 8.0 | 25.7 | 0.00 | 0.00 | 0.00 | 77 | 1013.5 |
| 20260503231002 | 10 | 200 | 11.3 | 20.9 | 0.00 | 0.00 | 0.00 | 77 | 1013.7 |
| 20260503230502 | 10 | 186 | 11.3 | 22.5 | 0.00 | 0.00 | 0.00 | 76 | 1013.6 |
| 20260503230001 | 10 | 196 | 6.4 | 17.7 | 0.00 | 0.00 | 0.00 | 77 | 1013.8 |
| 20260503225502 | 10 | 179 | 8.0 | 19.3 | 0.00 | 0.00 | 0.00 | 77 | 1013.8 |
| 20260503225001 | 10 | 175 | 6.4 | 19.3 | 0.00 | 0.00 | 0.00 | 78 | 1014.0 |
| 20260503224501 | 10 | 196 | 11.3 | 22.5 | 0.00 | 0.00 | 0.00 | 76 | 1013.8 |
| 20260503224002 | 10 | 179 | 8.0 | 25.7 | 0.00 | 0.00 | 0.00 | 76 | 1014.0 |
| 20260503223501 | 10 | 198 | 17.7 | 25.7 | 0.00 | 0.00 | 0.00 | 78 | 1014.2 |
| 20260503223001 | 10 | 203 | 6.4 | 22.5 | 0.00 | 0.00 | 0.00 | 77 | 1014.1 |
| 20260503222502 | 10 | 204 | 14.5 | 25.7 | 0.00 | 0.00 | 0.00 | 76 | 1014.4 |
| 20260503222001 | 10 | 178 | 9.7 | 27.4 | 0.00 | 0.00 | 0.00 | 78 | 1014.4 |
| 20260503221502 | 10 | 212 | 19.3 | 30.6 | 0.00 | 0.00 | 0.00 | 76 | 1014.5 |
| 20260503221002 | 10 | 220 | 29.0 | 41.8 | 0.00 | 0.00 | 0.00 | 76 | 1014.6 |
| 20260503220502 | 10 | 222 | 24.1 | 40.2 | 0.00 | 0.00 | 0.00 | 76 | 1014.7 |
| 20260503220002 | 10 | 220 | 32.2 | 45.1 | 0.00 | 0.00 | 0.00 | 75 | 1014.5 |
| 20260503215502 | 10 | 213 | 25.7 | 41.8 | 0.00 | 0.00 | 0.00 | 77 | 1014.7 |
| 20260503215002 | 11 | 216 | 29.0 | 48.3 | 0.00 | 0.00 | 0.00 | 75 | 1014.8 |
| 20260503214501 | 11 | 240 | 35.4 | 51.5 | 0.00 | 0.00 | 0.00 | 73 | 1014.9 |
| 20260503214002 | 11 | 249 | 46.7 | 46.7 | 0.00 | 0.00 | 0.00 | 75 | 1014.8 |
| 20260503213502 | 11 | 218 | 46.7 | 54.7 | 0.00 | 0.00 | 0.00 | 73 | 1015.2 |
| 20260503213001 | 11 | 245 | 51.5 | 61.2 | 0.00 | 0.00 | 0.00 | 72 | 1015.1 |
| 20260503212502 | 11 | 240 | 38.6 | 69.2 | 0.00 | 0.00 | 0.00 | 71 | 1015.0 |
| 20260503212001 | 11 | 231 | 41.8 | 67.6 | 0.00 | 0.00 | 0.00 | 71 | 1015.1 |
| 20260503211502 | 11 | 252 | 38.6 | 64.4 | 0.00 | 0.00 | 0.00 | 71 | 1015.1 |
| 20260503211002 | 12 | 257 | 59.5 | 69.2 | 0.00 | 0.00 | 0.00 | 69 | 1015.0 |
| 20260503210502 | 12 | 247 | 29.0 | 66.0 | 0.00 | 0.00 | 0.00 | 69 | 1014.9 |
| 20260503210002 | 12 | 241 | 45.1 | 72.4 | 0.00 | 0.00 | 0.00 | 67 | 1014.8 |
| 20260503205502 | 13 | 255 | 37.0 | 69.2 | 0.00 | 0.00 | 0.00 | 64 | 1014.7 |
| 20260503205001 | 13 | 256 | 32.2 | 72.4 | 0.00 | 0.00 | 0.00 | 63 | 1014.7 |
| 20260503204502 | 15 | 247 | 33.8 | 53.1 | 0.00 | 0.00 | 0.00 | 50 | 1014.6 |
| 20260503204002 | 15 | 239 | 37.0 | 51.5 | 0.00 | 0.00 | 0.00 | 50 | 1014.7 |
| 20260503203502 | 15 | 241 | 27.4 | 53.1 | 0.00 | 0.00 | 0.00 | 50 | 1014.8 |
| 20260503203002 | 15 | 240 | 33.8 | 48.3 | 0.00 | 0.00 | 0.00 | 47 | 1014.8 |
| 20260503202501 | 15 | 236 | 20.9 | 53.1 | 0.00 | 0.00 | 0.00 | 48 | 1014.9 |
| 20260503202002 | 15 | 233 | 35.4 | 51.5 | 0.00 | 0.00 | 0.00 | 47 | 1015.0 |
| 20260503201502 | 15 | 245 | 30.6 | 38.6 | 0.00 | 0.00 | 0.00 | 46 | 1014.9 |
| 20260503201002 | 15 | 236 | 45.1 | 48.3 | 0.00 | 0.00 | 0.00 | 45 | 1015.1 |
| 20260503200502 | 15 | 242 | 37.0 | 41.8 | 0.00 | 0.00 | 0.00 | 47 | 1015.2 |
| 20260503200002 | 16 | 225 | 30.6 | 41.8 | 0.00 | 0.00 | 0.00 | 46 | 1015.1 |
| 20260503195502 | 16 | 221 | 37.0 | 43.5 | 0.00 | 0.00 | 0.00 | 43 | 1015.1 |
| 20260503195001 | 15 | 228 | 24.1 | 48.3 | 0.00 | 0.00 | 0.00 | 45 | 1015.1 |
| 20260503194502 | 16 | 235 | 35.4 | 53.1 | 0.00 | 0.00 | 0.00 | 44 | 1015.2 |
| 20260503194001 | 15 | 249 | 43.5 | 46.7 | 0.00 | 0.00 | 0.00 | 45 | 1015.3 |
| 20260503193502 | 16 | 222 | 40.2 | 46.7 | 0.00 | 0.00 | 0.00 | 43 | 1015.4 |
| 20260503193002 | 16 | 231 | 49.9 | 53.1 | 0.00 | 0.00 | 0.00 | 43 | 1015.3 |
| 20260503192501 | 16 | 215 | 37.0 | 45.1 | 0.00 | 0.00 | 0.00 | 42 | 1015.4 |
| 20260503192002 | 16 | 229 | 35.4 | 43.5 | 0.00 | 0.00 | 0.00 | 43 | 1015.3 |
| 20260503191502 | 16 | 236 | 33.8 | 56.3 | 0.00 | 0.00 | 0.00 | 42 | 1015.3 |
| 20260503191002 | 16 | 216 | 38.6 | 43.5 | 0.00 | 0.00 | 0.00 | 43 | 1015.5 |
| 20260503190501 | 16 | 216 | 37.0 | 54.7 | 0.00 | 0.00 | 0.00 | 41 | 1015.4 |
| 20260503190002 | 16 | 233 | 27.4 | 51.5 | 0.00 | 0.00 | 0.00 | 43 | 1015.6 |
| 20260503185502 | 16 | 246 | 25.7 | 46.7 | 0.00 | 0.00 | 0.00 | 43 | 1015.6 |
| 20260503185001 | 16 | 246 | 48.3 | 56.3 | 0.00 | 0.00 | 0.00 | 41 | 1015.9 |